CW0498 Weather Reports


Display with metric or nautical units.
time (UTC)temp
F
wind
direction
speed
MPH
gust
MPH
rain 1hr
in
rain 24hr
in
rain mn
in
humidity
%
barometer
mb
20240303131546 50 0 0.0 0.0 0.01 0.01 0.01 95 1021.9
20240303130053 49 0 0.0 0.0 0.01 0.01 0.01 95 1021.8
20240303124546 49 0 0.0 0.0 0.00 0.00 0.00 95 1021.5
20240303123045 49 0 0.0 0.0 0.00 0.00 0.00 95 1021.5
20240303121539 48 0 0.0 1.0 0.00 0.00 0.00 95 1021.3
20240303120040 48 0 0.0 0.0 0.00 0.00 0.00 95 1021.1
20240303114543 48 0 0.0 1.0 0.00 0.00 0.00 95 1021.0
20240303113042 48 0 0.0 0.0 0.00 0.00 0.00 95 1021.1
20240303111541 47 0 0.0 0.0 0.00 0.00 0.00 95 1021.1
20240303110052 47 128 0.0 1.0 0.00 0.00 0.00 95 1021.0
20240303104556 47 0 0.0 1.0 0.00 0.01 0.00 95 1021.3
20240303103057 47 128 0.0 1.0 0.00 0.01 0.00 95 1021.3
20240303101553 47 0 0.0 0.0 0.00 0.01 0.00 95 1021.2
20240303100041 47 0 0.0 0.0 0.00 0.01 0.00 95 1021.1
20240303094551 46 0 0.0 0.0 0.00 0.01 0.00 95 1020.8
20240303093042 46 0 0.0 0.0 0.00 0.01 0.00 94 1020.8
20240303091550 46 0 0.0 0.0 0.00 0.01 0.00 95 1020.6
20240303090044 45 0 0.0 0.0 0.00 0.01 0.00 94 1020.5
20240303084534 45 0 0.0 0.0 0.00 0.01 0.00 94 1020.6
20240303083049 45 0 0.0 0.0 0.00 0.01 0.00 94 1020.7
20240303081542 45 0 0.0 0.0 0.00 0.01 0.00 94 1020.9
20240303080038 44 0 0.0 0.0 0.00 0.01 0.00 94 1021.0
20240303074548 44 0 0.0 0.0 0.00 0.01 0.00 94 1021.2
20240303073042 44 0 0.0 0.0 0.00 0.01 0.00 94 1021.1
20240303071551 44 0 0.0 1.0 0.00 0.01 0.00 94 1021.1
20240303070045 44 0 0.0 1.0 0.00 0.01 0.00 94 1021.0
20240303064549 43 0 0.0 0.0 0.00 0.01 0.00 94 1021.0
20240303063036 43 0 0.0 0.0 0.00 0.01 0.00 94 1021.2
20240303061545 43 0 0.0 0.0 0.00 0.01 0.00 94 1021.1
20240303060047 43 0 0.0 0.0 0.00 0.01 0.00 94 1021.1
20240303054538 43 0 0.0 0.0 0.00 0.01 0.00 94 1021.3
20240303053033 43 0 0.0 0.0 0.00 0.01 0.00 94 1021.3
20240303051612 43 0 0.0 0.0 0.00 0.01 0.00 94 1021.2
20240303050043 44 0 0.0 0.0 0.00 0.01 0.00 94 1021.1
20240303044607 44 0 0.0 0.0 0.00 0.01 0.01 94 1021.0
20240303043052 44 0 0.0 0.0 0.00 0.01 0.01 94 1021.2
20240303041545 44 0 0.0 0.0 0.00 0.01 0.01 94 1021.1
20240303040042 45 0 0.0 0.0 0.00 0.01 0.01 94 1020.9
20240303034538 46 0 0.0 0.0 0.00 0.01 0.01 94 1020.9
20240303033038 46 0 0.0 0.0 0.00 0.01 0.01 94 1021.0
20240303031537 47 0 0.0 0.0 0.00 0.01 0.01 94 1020.9
20240303030050 47 0 0.0 0.0 0.00 0.01 0.01 94 1020.9
20240303024539 48 0 0.0 0.0 0.00 0.01 0.01 94 1020.9
20240303023037 48 0 0.0 0.0 0.00 0.01 0.01 94 1020.9
20240303021535 49 0 0.0 0.0 0.00 0.01 0.01 94 1020.9
20240303020039 49 0 0.0 0.0 0.00 0.01 0.01 93 1020.8
20240303014541 49 0 0.0 0.0 0.00 0.02 0.01 93 1020.6
20240303013037 50 0 0.0 0.0 0.00 0.02 0.01 93 1020.3
20240303011606 51 0 0.0 0.0 0.00 0.02 0.01 93 1020.1
20240303010046 51 0 0.0 0.0 0.00 0.02 0.01 93 1020.0
20240303004538 52 0 0.0 0.0 0.00 0.02 0.01 93 1020.0
20240303003105 53 0 0.0 0.0 0.00 0.02 0.01 92 1020.0
20240303001536 54 0 0.0 0.0 0.00 0.02 0.01 92 1019.9
20240303000038 56 0 0.0 0.0 0.00 0.02 0.01 91 1019.9
20240302234541 56 0 0.0 1.0 0.00 0.03 0.01 91 1019.7
20240302233034 57 0 0.0 1.0 0.00 0.03 0.01 90 1019.7
20240302231539 58 0 0.0 0.0 0.00 0.03 0.01 88 1019.7
20240302230044 59 0 0.0 0.0 0.00 0.03 0.01 87 1019.6
20240302224541 59 86 0.0 1.0 0.00 0.03 0.01 86 1019.5
20240302223042 59 0 0.0 1.0 0.00 0.03 0.01 86 1019.7
20240302221543 60 86 0.0 1.0 0.00 0.03 0.01 85 1019.8
20240302220052 60 95 1.0 2.0 0.00 0.03 0.01 85 1020.0
20240302214544 60 93 1.0 2.0 0.00 0.05 0.01 86 1020.0
20240302213051 60 63 0.0 1.0 0.00 0.05 0.01 86 1020.3
20240302211546 59 57 1.0 2.0 0.00 0.05 0.01 86 1020.4
20240302210036 59 66 0.0 2.0 0.00 0.05 0.01 86 1020.4
20240302204534 60 268 0.0 1.0 0.00 0.09 0.01 86 1020.2
20240302203036 59 316 1.0 2.0 0.00 0.09 0.01 86 1020.3
20240302201555 59 110 1.0 2.0 0.00 0.09 0.01 87 1020.2
20240302200039 59 326 0.0 1.0 0.00 0.09 0.01 88 1020.3
20240302194547 58 50 0.0 2.0 0.00 0.13 0.01 88 1020.3
20240302193044 58 0 0.0 3.0 0.00 0.13 0.01 90 1020.5
20240302191543 57 292 0.0 3.0 0.00 0.13 0.01 91 1020.5
20240302190050 55 329 0.0 2.0 0.00 0.13 0.01 91 1020.6
20240302184543 54 353 0.0 3.0 0.00 0.17 0.01 93 1021.0
20240302183039 54 335 0.0 2.0 0.00 0.17 0.01 93 1021.3
20240302181540 53 91 0.0 1.0 0.00 0.17 0.01 93 1021.8
20240302180036 53 0 0.0 1.0 0.00 0.17 0.01 93 1022.1
20240302174540 52 136 0.0 1.0 0.00 0.26 0.01 94 1022.2
20240302173059 52 0 0.0 1.0 0.00 0.26 0.01 94 1022.4
20240302171537 51 137 0.0 1.0 0.00 0.26 0.01 94 1022.6
20240302170040 51 160 0.0 1.0 0.00 0.26 0.01 94 1022.6
20240302164538 51 165 0.0 1.0 0.00 0.58 0.01 94 1022.5
20240302163041 50 206 0.0 2.0 0.00 0.58 0.01 94 1022.4
20240302161556 50 242 0.0 1.0 0.00 0.58 0.01 94 1022.5
20240302160044 49 0 0.0 1.0 0.00 0.58 0.01 94 1022.3
20240302154548 49 111 0.0 1.0 0.00 0.75 0.01 94 1022.4
20240302153046 48 0 0.0 1.0 0.00 0.75 0.01 94 1022.5
20240302151549 48 0 0.0 1.0 0.00 0.75 0.01 94 1022.6
20240302150043 48 0 0.0 1.0 0.00 0.75 0.01 95 1022.4
20240302144548 47 0 0.0 1.0 0.00 0.99 0.01 95 1022.4
20240302143036 47 108 0.0 1.0 0.00 0.99 0.01 94 1022.5
20240302141550 46 108 1.0 1.0 0.00 0.99 0.01 94 1022.3
20240302140042 46 0 0.0 1.0 0.00 0.99 0.01 95 1022.3
20240302134544 46 0 0.0 1.0 0.00 1.08 0.01 94 1022.2
20240302133045 46 108 0.0 1.0 0.00 1.08 0.01 94 1022.1